Home   Weather   Spokane   Past weeks

Flag for USA Past Weather in Spokane, Washington, USA — Yesterday and Last 2 Weeks

Now
30 °F

Partly sunny.


Feels Like: 26 °F
Forecast: 28 / 36 °F
Wind: 3 mph from Northeast

Location: Felts Field

Current Time: Jan 20, 2017 at 8:32:32 am

Latest Report: Jan 20, 2017 at 7:53 am


Visibility: 7 mi

Pressure: 29.43 "Hg (27.40 "Hg at 569m altitude)

Humidity: 96%

Dew Point: 29 °F

Location of SpokaneLocation

Past Weather in Spokane — Graph

°F

Spokane Temperature Yesterday

Maximum temperature yesterday: 42 °F (at 10:53 am)
Minimum temperature yesterday: 31 °F (at 10:53 pm)
Average temperature yesterday: 38 °F

High & Low Weather Summary for the Past Weeks

 TemperatureHumidityPressure
High43 °F (Jan 18, 10:53 am)100% (Jan 7, 9:53 am)30.72 "Hg (Jan 7, 9:53 am)
Low2 °F (Jan 7, 5:53 am)57% (Jan 6, 2:53 pm)29.46 "Hg (Jan 20, 6:53 am)
Average19 °F86%30.09 "Hg
* Reported Jan 5 6:53 am — Jan 20 6:53 am, Spokane, Weather by CustomWeather, © 2017

Note: Actual official high and low records may vary slightly from our data, if they occured in-between our weather recording intervals... More about our weather records

Advertising

Spokane Weather History for the Previous 24 Hours

Scroll right to see more
 ConditionsComfort  
Time TempWeatherWind HumidityBarometerVisibility
6:53 am
Fri, Jan 20
29 °FIce fog.No wind96%29.46 "Hg5 mi
5:53 am30 °FIce fog.No wind96%29.48 "Hg5 mi
4:53 am30 °FMostly cloudy.5 mph96%29.50 "Hg8 mi
3:53 am30 °FMostly cloudy.No wind92%29.51 "Hg8 mi
2:53 am30 °FIce fog.No wind96%29.53 "Hg5 mi
1:53 am29 °FIce fog.No wind96%29.56 "Hg4 mi
1:16 am29 °FIce fog.No wind96%29.53 "Hg2 mi
12:53 am27 °FIce fog.3 mph100%29.57 "Hg3 mi
11:53 pm
Thu, Jan 19
32 °FPassing clouds.6 mph92%29.57 "Hg10 mi
10:53 pm31 °FClear.5 mph96%29.60 "Hg10 mi
9:53 pm32 °FClear.6 mph92%29.60 "Hg10 mi
8:53 pm34 °FClear.5 mph88%29.60 "Hg10 mi
7:53 pm36 °FPassing clouds.5 mph85%29.62 "Hg10 mi
6:53 pm36 °FPassing clouds.5 mph89%29.62 "Hg10 mi
5:53 pm35 °FPassing clouds.3 mph88%29.62 "Hg10 mi
4:53 pm37 °FPassing clouds.3 mph86%29.62 "Hg10 mi
3:53 pm41 °FPassing clouds.6 mph74%29.62 "Hg10 mi
2:53 pm41 °FSunny.10 mph76%29.60 "Hg10 mi
1:53 pm42 °FScattered clouds.8 mph73%29.59 "Hg10 mi
12:53 pm42 °FScattered clouds.9 mph76%29.60 "Hg10 mi
11:53 am42 °FBroken clouds.9 mph73%29.60 "Hg10 mi
10:53 am42 °FScattered clouds.No wind76%29.62 "Hg10 mi
9:53 am40 °FOvercast.No wind86%29.63 "Hg10 mi
8:53 am38 °FScattered clouds.5 mph90%29.62 "Hg10 mi
Weather by CustomWeather, © 2017

See weather overviewHow to use our weather pages